[[{"header":{"parameterUnit":"m.s-1","parameterCategory":1,"la1":30.2991,"la2":30.254,"lo1":-89.0895,"lo2":-89.0444,"dy":0.0017,"dx":0.0017,"nx":28,"ny":28,"refTime":"2024-06-13T03:00:00:Z","depth":0,"parameterNumber":2,"parameterNumberName":"U-component_of_WINDS"},"data":[0,0,0,0,0,0,0,0,0,0,0,0,0,0,0,0,0,0,0,0,0,0,0,0,0,0,0,0,0,0,0,0,0,0,0,0,0,0,0,0,0,0,0,0,0,0,0,0,0,0,0,0,0,0,0,0,0,0,0.2745,0.2746,0,0.2805,0.2806,0.2806,0.2858,0.2859,0.286,0.286,0.292,0.2921,0.2922,0,0,0,0,0,0,0,0,0,0,0,0,0,0.2674,0.2675,0.2745,0.2746,0.2747,0.2805,0.2806,0.2807,0.2858,0.2859,0.286,0.286,0.292,0.2921,0.2923,0,0,0,0,0,0,0,0,0,0,0,0,0,0.2716,0.2675,0.2745,0.278,0.2783,0.2805,0.2806,0.2807,0.2858,0.2859,0.286,0.2861,0.292,0.2921,0.2923,0.2914,0,0,0.2927,0.2928,0,0,0,0,0,0,0,0,0.2714,0.2719,0.2774,0.2777,0.2781,0.2825,0.2803,0.2843,0.2858,0.283,0.286,0.2861,0.2888,0.2892,0.2901,0.2917,0.292,0.2928,0.2929,0.2929,0.293,0,0,0,0,0,0,0,0.2711,0.2717,0.2769,0.2774,0.2779,0.2791,0.2798,0.2811,0.2853,0.2832,0.2836,0.2843,0.289,0.29,0.2903,0.2921,0.2928,0.2929,0.293,0.2931,0.2931,0.293,0,0,0,0,0,0,0.2703,0.2714,0.2767,0.2771,0.2749,0.2792,0.28,0.281,0.2853,0.286,0.2842,0.2845,0.2897,0.2901,0.2905,0.2897,0.2929,0.2931,0.2932,0.2932,0.2931,0.293,0,0,0,0,0,0,0.2701,0.2707,0.2765,0.2743,0.2752,0.2792,0.2803,0.2811,0.2821,0.286,0.2868,0.2844,0.2898,0.2903,0.2912,0.29,0.2931,0.2933,0.2933,0.2932,0.2931,0.2882,0,0,0,0,0,0,0.2699,0.2706,0.2704,0.2743,0.2752,0.277,0.2803,0.2811,0.2823,0.2828,0.2864,0.2871,0.2899,0.2909,0.2913,0.2903,0.2934,0.2934,0.2933,0.2931,0.2885,0.2879,0.2874,0,0,0,0,0,0.2696,0.2688,0.2703,0.271,0.2751,0.2769,0.2775,0.2807,0.2822,0.282,0.2845,0.287,0.2901,0.2909,0.2915,0.2905,0.2935,0.2933,0.2931,0.2887,0.288,0.2874,0,0,0,0,0,0,0.2646,0.2694,0.2711,0.2716,0.2738,0.2778,0.2776,0.2799,0.2817,0.282,0.2859,0.2867,0.287,0.2889,0.2897,0.2898,0.2921,0.292,0.2886,0.288,0.2875,0.287,0.2935,0,0,0,0,0,0.2636,0.2647,0.2688,0.2688,0.2698,0.2735,0.2744,0.2767,0.2792,0.2801,0.2827,0.285,0.2865,0.2873,0.2889,0.2888,0.2896,0.2884,0.2878,0.2874,0.2872,0.2871,0.2865,0.2923,0.2923,0.2923,0,0,0.2614,0.2641,0.2646,0.2678,0.2698,0.2709,0.2743,0.2753,0.276,0.2803,0.2812,0.2832,0.2859,0.2862,0.2865,0.2877,0.2858,0.2871,0.2867,0.2868,0.2868,0.2863,0.2858,0.2922,0.2922,0.2922,0,0,0.258,0.2602,0.2604,0.2623,0.2653,0.2677,0.2678,0.2714,0.2729,0.2739,0.277,0.278,0.2805,0.2823,0.2835,0.2807,0.2829,0.2811,0.2783,0.2781,0.2777,0.2773,0.2761,0.2757,0.2809,0.2809,0.2809,0,0.2549,0.2566,0.2602,0.2609,0.2622,0.2661,0.2662,0.2679,0.2712,0.272,0.2734,0.2765,0.2786,0.2793,0.2786,0.2795,0.2796,0.2806,0.2775,0.2771,0.2768,0.2757,0.2753,0.2806,0.2807,0.2807,0.2807,0,0.2526,0.2538,0.2535,0.2566,0.2579,0.2583,0.2618,0.2627,0.2648,0.2671,0.2679,0.2707,0.2728,0.2731,0.2753,0.2741,0.2748,0.2768,0.2791,0.2759,0.275,0.2746,0.2803,0.2803,0.2804,0.2805,0,0,0.2462,0.2512,0.251,0.2524,0.256,0.2569,0.2575,0.2596,0.2601,0.2623,0.2628,0.2648,0.2666,0.268,0.2704,0.2702,0.2676,0.2722,0.2724,0.2712,0.2663,0.2646,0.2641,0.2692,0.2691,0.2691,0.266,0,0.2432,0.2445,0.2476,0.2479,0.2489,0.2526,0.2531,0.2553,0.2574,0.2585,0.2609,0.2622,0.2646,0.2654,0.2655,0.2679,0.2666,0.2682,0.2696,0.2696,0.2686,0.2637,0.262,0.2589,0.2657,0.2656,0.2656,0,0.2399,0.2418,0.2422,0.2456,0.2461,0.2465,0.2486,0.2497,0.2522,0.2537,0.2552,0.2578,0.2585,0.2608,0.2617,0.2627,0.2635,0.2647,0.2647,0.2648,0.2673,0.2635,0.2581,0.2575,0.265,0.2651,0.2651,0,0.235,0.2376,0.2382,0.2393,0.2433,0.2434,0.2451,0.2477,0.2487,0.2506,0.2512,0.2531,0.2541,0.2555,0.2585,0.2599,0.259,0.2616,0.2602,0.2601,0.2598,0.2597,0.2542,0.2605,0.2605,0.2605,0.2605,0,0.2312,0.2313,0.236,0.2363,0.2364,0.24,0.24,0.242,0.2443,0.245,0.2483,0.2489,0.2529,0.2539,0.2562,0.2565,0.257,0.2582,0.2588,0.2578,0.2576,0.2583,0.2585,0.2604,0.2604,0.2604,0.2604,0,0.2257,0.2289,0.2297,0.2334,0.2343,0.2342,0.2374,0.2378,0.2401,0.2409,0.2413,0.2449,0.2462,0.2494,0.2516,0.2532,0.2528,0.254,0.2519,0.2523,0.2507,0.2507,0.2452,0.2446,0.2514,0.2513,0.2513,0,0.2231,0.2232,0.2269,0.2276,0.2291,0.2303,0.2313,0.2349,0.2358,0.2386,0.2386,0.2402,0.2417,0.2436,0.2464,0.248,0.2492,0.2472,0.2494,0.2484,0.249,0.2489,0.2488,0.2466,0.2465,0.2464,0.2464,0,0.218,0.2195,0.2209,0.2228,0.224,0.2257,0.2276,0.2279,0.2319,0.2328,0.2342,0.2353,0.2375,0.239,0.241,0.2427,0.2451,0.2456,0.2454,0.2443,0.243,0.2435,0.2504,0.2457,0.2458,0.2458,0.2459,0.2459,0.2137,0.2139,0.2165,0.218,0.2197,0.2214,0.2219,0.2243,0.2255,0.2276,0.2296,0.2307,0.2331,0.2362,0.2376,0.2385,0.2398,0.2394,0.2393,0.2392,0.2386,0.243,0.2389,0.239,0.239,0.239,0.239,0,0.2086,0.2105,0.2118,0.2143,0.2154,0.2177,0.2198,0.2205,0.2215,0.2236,0.2249,0.2265,0.2279,0.2308,0.2324,0.2326,0.2337,0.2329,0.2328,0.2332,0.2375,0.2375,0.2319,0.2319,0.2319,0.2319,0.2319,0.2319,0.2061,0.2066,0.2084,0.2097,0.2116,0.2128,0.2138,0.2153,0.2169,0.2185,0.2197,0.2216,0.2239,0.2258,0.2271,0.228,0.2283,0.2271,0.2282,0.2322,0.2329,0.2335,0.2335,0.2272,0.2272,0.2238,0.2238,0.2237]},{"header":{"parameterUnit":"m.s-1","parameterCategory":1,"la1":30.2991,"la2":30.254,"lo1":-89.0895,"lo2":-89.0444,"dy":0.0017,"dx":0.0017,"nx":28,"ny":28,"refTime":"2024-06-13T03:00:00:Z","depth":0,"parameterNumber":3,"parameterNumberName":"V-component_of_WINDS"},"data":[0,0,0,0,0,0,0,0,0,0,0,0,0,0,0,0,0,0,0,0,0,0,0,0,0,0,0,0,0,0,0,0,0,0,0,0,0,0,0,0,0,0,0,0,0,0,0,0,0,0,0,0,0,0,0,0,0,0,2.8749,2.8749,0,2.8724,2.8724,2.8724,2.8709,2.8709,2.8709,2.8709,2.8683,2.8683,2.8682,0,0,0,0,0,0,0,0,0,0,0,0,0,2.8783,2.8782,2.8749,2.8749,2.8749,2.8725,2.8724,2.8724,2.8709,2.8709,2.8709,2.8709,2.8683,2.8683,2.8682,0,0,0,0,0,0,0,0,0,0,0,0,0,2.8764,2.8782,2.8749,2.8739,2.8737,2.8725,2.8724,2.8724,2.8709,2.8709,2.8709,2.8709,2.8684,2.8683,2.8682,2.8678,0,0,2.8679,2.8679,0,0,0,0,0,0,0,0,2.8765,2.8763,2.874,2.8739,2.8738,2.872,2.8726,2.8708,2.8709,2.872,2.8709,2.8709,2.8695,2.8694,2.8689,2.8677,2.8676,2.8679,2.8678,2.8678,2.8678,0,0,0,0,0,0,0,2.8766,2.8764,2.874,2.874,2.8739,2.8734,2.8732,2.8723,2.8709,2.8719,2.8718,2.8715,2.8695,2.869,2.8688,2.8675,2.8679,2.8678,2.8677,2.8677,2.8656,2.8656,0,0,0,0,0,0,2.877,2.8765,2.874,2.8739,2.8752,2.8734,2.8731,2.8726,2.8709,2.8706,2.8715,2.8715,2.8692,2.8689,2.8687,2.868,2.8678,2.8677,2.8676,2.8656,2.8656,2.8656,0,0,0,0,0,0,2.877,2.8768,2.8741,2.8752,2.8748,2.8733,2.8728,2.8725,2.8721,2.8706,2.8703,2.8713,2.8692,2.8689,2.868,2.8679,2.8677,2.8676,2.8656,2.8656,2.8656,2.8667,0,0,0,0,0,0,2.8771,2.8768,2.8767,2.8752,2.8747,2.8735,2.8728,2.8725,2.8719,2.8718,2.8703,2.8701,2.8691,2.8681,2.8679,2.8678,2.8675,2.8656,2.8656,2.8656,2.8667,2.8668,2.8668,0,0,0,0,0,2.8773,2.8771,2.8767,2.8764,2.8746,2.8735,2.8732,2.8722,2.8719,2.8717,2.8707,2.8701,2.868,2.8681,2.8678,2.8677,2.8656,2.8656,2.8656,2.8667,2.8667,2.8668,0,0,0,0,0,0,2.8787,2.8769,2.8764,2.8758,2.8748,2.8732,2.873,2.8723,2.8714,2.8713,2.8701,2.8697,2.8689,2.8682,2.8683,2.8671,2.8667,2.8667,2.8676,2.8677,2.8677,2.8679,2.8674,0,0,0,0,0,2.8789,2.8782,2.8767,2.8763,2.8758,2.8745,2.874,2.8732,2.8722,2.8717,2.8707,2.8697,2.8687,2.8682,2.8673,2.8666,2.8661,2.8663,2.8664,2.8665,2.8664,2.8658,2.8658,2.8656,2.8656,2.8656,0,0,2.8794,2.8783,2.878,2.8765,2.8757,2.8749,2.8742,2.8734,2.8728,2.8716,2.8707,2.8699,2.8686,2.8678,2.8674,2.8672,2.8664,2.8665,2.8665,2.8664,2.8658,2.8659,2.8659,2.8656,2.8656,2.8656,0,0,2.8799,2.8791,2.8785,2.8777,2.8764,2.8755,2.8754,2.8739,2.8733,2.8724,2.8714,2.8706,2.8691,2.8682,2.8676,2.8675,2.8668,2.8672,2.8676,2.8671,2.8671,2.8671,2.8669,2.8669,2.8672,2.8672,2.8672,0,2.8807,2.8795,2.8784,2.8776,2.877,2.8758,2.8752,2.8744,2.8729,2.8725,2.8722,2.8702,2.8693,2.8681,2.8681,2.8677,2.8674,2.8674,2.8672,2.8672,2.8671,2.867,2.867,2.8673,2.8673,2.8673,2.8673,0,2.8804,2.8796,2.8794,2.8779,2.8772,2.8765,2.8752,2.8746,2.8739,2.873,2.872,2.8708,2.8696,2.8693,2.8686,2.868,2.8679,2.8674,2.867,2.8672,2.8671,2.867,2.8673,2.8673,2.8673,2.8673,0,0,2.8818,2.8796,2.8795,2.8788,2.8772,2.8765,2.8758,2.8745,2.874,2.8729,2.8722,2.8709,2.8704,2.8696,2.8688,2.8684,2.8682,2.8679,2.8679,2.8679,2.8673,2.8676,2.8676,2.8678,2.8677,2.8677,2.8674,0,2.882,2.8806,2.8795,2.8785,2.8776,2.8765,2.8758,2.8747,2.8738,2.8729,2.8719,2.8709,2.8705,2.87,2.8694,2.8684,2.8681,2.8684,2.867,2.8669,2.8673,2.8675,2.8679,2.8676,2.8673,2.8673,2.8673,0,2.882,2.881,2.8799,2.8782,2.8778,2.8773,2.876,2.8752,2.8738,2.8732,2.8723,2.8714,2.8705,2.8702,2.8687,2.869,2.8683,2.8677,2.8676,2.8674,2.8671,2.8672,2.8675,2.8674,2.8672,2.8672,2.8672,0,2.883,2.8813,2.8804,2.8798,2.8779,2.8775,2.8767,2.8753,2.8746,2.8735,2.873,2.8717,2.871,2.87,2.8688,2.8687,2.8674,2.8671,2.8668,2.8668,2.8666,2.8666,2.8667,2.8663,2.8663,2.8663,2.8663,0,2.8833,2.8826,2.8808,2.8802,2.8794,2.8781,2.8773,2.8764,2.8752,2.8743,2.8733,2.8725,2.8709,2.8699,2.869,2.8679,2.8676,2.867,2.8667,2.867,2.8671,2.8666,2.8665,2.8663,2.8663,2.8663,2.8663,0,2.8842,2.883,2.8819,2.8801,2.8797,2.8791,2.8776,2.877,2.876,2.8749,2.8746,2.873,2.8718,2.8704,2.8688,2.8681,2.867,2.8667,2.8674,2.8673,2.8671,2.8671,2.8667,2.8666,2.8664,2.8664,2.8664,0,2.8844,2.8839,2.8821,2.8814,2.8806,2.8797,2.8789,2.8775,2.8768,2.8751,2.8747,2.8733,2.8722,2.8702,2.8689,2.8676,2.8671,2.8671,2.8669,2.8672,2.867,2.8671,2.8669,2.8672,2.8672,2.8672,2.8672,0,2.8849,2.8843,2.8833,2.882,2.8811,2.88,2.8789,2.8784,2.8768,2.876,2.8747,2.8738,2.872,2.8707,2.8691,2.8682,2.8674,2.8673,2.8671,2.8674,2.8678,2.8675,2.8675,2.8673,2.8673,2.8673,2.8673,2.8673,2.8855,2.8849,2.8835,2.8823,2.8813,2.8802,2.8795,2.8784,2.8773,2.8757,2.875,2.8737,2.8722,2.8701,2.8691,2.868,2.8678,2.8676,2.8675,2.8675,2.8675,2.8681,2.8678,2.8678,2.8677,2.8677,2.8677,0,2.8858,2.8848,2.8838,2.8822,2.8812,2.8806,2.8792,2.8785,2.8773,2.8761,2.8749,2.8734,2.872,2.8705,2.869,2.8684,2.868,2.8681,2.8681,2.8678,2.8679,2.8681,2.8684,2.8684,2.8684,2.8684,2.8684,2.8684,2.8859,2.8848,2.884,2.8824,2.8814,2.8801,2.8794,2.8783,2.8773,2.8756,2.8745,2.8735,2.8721,2.8705,2.8692,2.8687,2.8682,2.8684,2.8679,2.8679,2.8679,2.8678,2.868,2.8683,2.8683,2.8679,2.8679,2.8679]}]]